FW2573 Weather Reports


Display with metric or nautical units.
time (UTC)temp
F
wind
direction
speed
MPH
gust
MPH
rain 1hr
in
rain 24hr
in
rain mn
in
humidity
%
barometer
mb
20260508134522 51 263 1.0 5.0 0.00 0.00 0.00 40 1018.6
20260508133012 51 157 1.0 3.0 0.00 0.00 0.00 42 1018.4
20260508131507 50 211 0.0 2.0 0.00 0.00 0.00 42 1018.4
20260508130007 49 211 0.0 3.0 0.00 0.00 0.00 43 1018.2
20260508124507 47 211 0.0 0.0 0.00 0.00 0.00 47 1018.1
20260508123109 45 360 0.0 0.0 0.00 0.00 0.00 48 1018.1
20260508121559 41 211 0.0 0.0 0.00 0.00 0.00 64 1018.0
20260508120056 39 211 0.0 0.0 0.00 0.00 0.00 66 1017.7
20260508114554 37 211 0.0 0.0 0.00 0.01 0.00 68 1017.4
20260508113101 36 211 0.0 0.0 0.00 0.01 0.00 68 1017.1
20260508111551 36 211 0.0 0.0 0.00 0.01 0.00 68 1017.0
20260508110049 36 211 0.0 0.0 0.00 0.01 0.00 67 1016.8
20260508104547 37 211 0.0 0.0 0.00 0.03 0.00 66 1016.4
20260508103048 37 211 0.0 0.0 0.00 0.03 0.00 66 1016.0
20260508101541 38 211 0.0 0.0 0.00 0.03 0.00 64 1015.6
20260508100037 38 211 0.0 1.0 0.00 0.03 0.00 62 1015.3
20260508094551 39 211 0.0 2.0 0.00 0.03 0.00 63 1015.1
20260508093035 40 211 0.0 3.0 0.00 0.03 0.00 62 1015.0
20260508091535 41 234 0.0 2.0 0.00 0.03 0.00 59 1015.0
20260508090027 42 272 1.0 7.0 0.00 0.03 0.00 57 1014.8
20260508084524 43 257 2.0 6.0 0.00 0.03 0.00 57 1015.0
20260508083022 43 326 2.0 7.0 0.00 0.03 0.00 57 1014.8
20260508081549 43 266 1.0 9.0 0.00 0.03 0.00 58 1014.8
20260508080021 43 208 2.0 7.0 0.00 0.03 0.00 59 1014.4
20260508074515 43 251 2.0 12.0 0.00 0.04 0.00 59 1014.3
20260508073014 44 253 2.0 8.0 0.00 0.04 0.00 59 1014.0
20260508071526 44 245 3.0 7.0 0.00 0.04 0.00 60 1013.8
20260508070008 44 292 5.0 8.0 0.00 0.04 0.00 61 1013.7
20260508064510 44 236 3.0 9.0 0.00 0.04 0.00 62 1013.9
20260508063014 45 249 3.0 10.0 0.00 0.04 0.00 64 1013.8
20260508061601 45 224 2.0 11.0 0.00 0.04 0.00 64 1013.8
20260508060105 45 258 2.0 8.0 0.00 0.04 0.00 64 1013.9
20260508054557 45 265 2.0 10.0 0.00 0.04 0.00 66 1014.1
20260508053058 46 269 2.0 9.0 0.00 0.04 0.00 66 1014.1
20260508051555 46 264 4.0 8.0 0.00 0.04 0.00 65 1014.0
20260508050050 46 254 2.0 7.0 0.00 0.04 0.00 65 1013.9
20260508044548 46 306 3.0 11.0 0.00 0.04 0.00 65 1013.5
20260508043048 46 235 4.0 10.0 0.00 0.04 0.00 65 1013.2
20260508041544 46 251 3.0 10.0 0.00 0.04 0.00 65 1013.3
20260508040046 46 264 2.0 10.0 0.00 0.04 0.00 66 1013.1
20260508034539 46 188 2.0 8.0 0.00 0.04 0.04 66 1013.2
20260508033036 46 267 3.0 8.0 0.00 0.04 0.04 66 1013.3
20260508031536 46 248 2.0 8.0 0.00 0.04 0.04 65 1013.4
20260508030034 47 269 2.0 9.0 0.00 0.04 0.04 64 1013.4
20260508024545 47 246 3.0 9.0 0.00 0.07 0.04 63 1013.2
20260508023032 47 264 3.0 8.0 0.00 0.07 0.04 64 1013.4
20260508021529 46 259 3.0 6.0 0.00 0.07 0.04 64 1013.3
20260508020028 47 278 2.0 5.0 0.00 0.07 0.04 64 1012.9
20260508014529 47 250 2.0 5.0 0.00 0.08 0.04 63 1012.7
20260508013024 47 279 1.0 5.0 0.00 0.08 0.04 63 1012.2
20260508011525 47 281 2.0 7.0 0.00 0.08 0.04 63 1012.0
20260508010031 47 271 1.0 4.0 0.00 0.08 0.04 62 1011.5
20260508004518 48 265 1.0 10.0 0.00 0.08 0.04 61 1011.3
20260508003016 48 254 3.0 9.0 0.00 0.08 0.04 60 1011.1
20260508001515 49 20 4.0 11.0 0.00 0.08 0.04 59 1011.1
20260508000012 49 360 4.0 17.0 0.00 0.08 0.04 58 1010.8
20260507234514 50 280 4.0 16.0 0.00 0.08 0.04 56 1010.7
20260507233020 51 285 3.0 12.0 0.00 0.08 0.04 56 1010.7
20260507231503 52 281 4.0 14.0 0.00 0.08 0.04 57 1010.8
20260507230004 52 96 6.0 21.0 0.00 0.08 0.04 57 1010.5
20260507224502 53 288 5.0 16.0 0.00 0.08 0.04 58 1010.4
20260507223002 53 283 5.0 14.0 0.00 0.08 0.04 58 1010.1
20260507221600 54 271 4.0 14.0 0.00 0.08 0.04 59 1009.8
20260507220100 54 312 5.0 11.0 0.00 0.08 0.04 60 1009.8
20260507214607 51 245 2.0 13.0 0.00 0.08 0.04 65 1009.9
20260507213057 53 28 3.0 11.0 0.00 0.08 0.04 63 1009.7
20260507211551 57 271 5.0 11.0 0.00 0.08 0.04 59 1009.3
20260507210058 61 263 5.0 22.0 0.00 0.08 0.04 55 1008.8
20260507204549 62 260 7.0 20.0 0.00 0.08 0.04 51 1008.5
20260507203103 63 247 4.0 11.0 0.00 0.08 0.04 54 1008.4
20260507201556 63 221 4.0 9.0 0.00 0.08 0.04 53 1008.3
20260507200103 64 262 5.0 15.0 0.00 0.08 0.04 53 1008.5
20260507194545 64 327 8.0 17.0 0.00 0.08 0.04 53 1008.6
20260507193047 65 241 5.0 19.0 0.00 0.08 0.04 50 1008.8
20260507191541 66 246 4.0 11.0 0.00 0.08 0.04 52 1008.5
20260507190040 67 182 3.0 12.0 0.00 0.08 0.04 50 1009.0
20260507184543 67 252 5.0 13.0 0.00 0.08 0.04 51 1008.9
20260507183038 67 284 7.0 13.0 0.00 0.08 0.04 51 1008.9
20260507181537 68 304 4.0 9.0 0.00 0.08 0.04 51 1008.8
20260507180039 68 248 5.0 13.0 0.00 0.08 0.04 49 1008.6
20260507174538 68 308 5.0 13.0 0.00 0.08 0.04 52 1008.7
20260507173036 68 254 4.0 10.0 0.00 0.08 0.04 51 1008.7
20260507171534 69 265 5.0 10.0 0.00 0.08 0.04 51 1008.7
20260507170033 68 347 2.0 9.0 0.00 0.08 0.04 49 1008.6
20260507164528 67 271 3.0 7.0 0.00 0.08 0.04 53 1008.9
20260507163025 66 301 2.0 4.0 0.00 0.08 0.04 58 1009.0
20260507161523 63 321 1.0 3.0 0.00 0.08 0.04 61 1009.3
20260507160022 64 328 0.0 2.0 0.00 0.08 0.04 61 1009.1
20260507154519 63 66 0.0 3.0 0.00 0.08 0.04 64 1009.0
20260507153019 62 294 0.0 3.0 0.00 0.08 0.04 65 1009.3
20260507151518 63 297 0.0 4.0 0.00 0.08 0.04 61 1009.1
20260507150023 63 293 0.0 3.0 0.00 0.08 0.04 62 1009.2
20260507144523 62 295 0.0 2.0 0.00 0.08 0.04 62 1009.6
20260507143014 63 296 0.0 2.0 0.00 0.08 0.04 63 1009.5
20260507141510 61 296 0.0 3.0 0.00 0.08 0.04 67 1009.7
20260507140008 61 299 0.0 3.0 0.00 0.08 0.04 68 1009.8